DW3765 Weather Reports


Display with metric or nautical units.
time (UTC)temp
F
wind
direction
speed
MPH
gust
MPH
rain 1hr
in
rain 24hr
in
rain mn
in
humidity
%
barometer
mb
20260901192214 95 207 0.0 9.0 0.00 0.00 0.00 47 1015.8
20260901191625 94 247 5.0 9.0 0.00 0.00 0.00 45 1015.8
20260901191141 94 188 1.0 6.0 0.00 0.00 0.00 45 1015.9
20260901190709 94 260 2.0 9.0 0.00 0.00 0.00 45 1015.9
20260901190218 94 184 2.0 10.0 0.00 0.00 0.00 48 1016.1
20260901185627 93 163 4.0 10.0 0.00 0.00 0.00 47 1016.2
20260901185151 93 189 3.0 9.0 0.00 0.00 0.00 47 1016.3
20260901184703 93 217 1.0 9.0 0.00 0.00 0.00 48 1016.4
20260901184142 93 254 0.0 7.0 0.00 0.00 0.00 47 1016.5
20260901183650 93 172 2.0 6.0 0.00 0.00 0.00 45 1016.5
20260901183145 93 172 3.0 11.0 0.00 0.00 0.00 45 1016.6
20260901182642 93 159 6.0 11.0 0.00 0.00 0.00 46 1016.6
20260901182141 92 121 2.0 10.0 0.00 0.00 0.00 47 1016.6
20260901181703 92 191 2.0 8.0 0.00 0.00 0.00 47 1016.7
20260901181203 92 155 1.0 8.0 0.00 0.00 0.00 49 1016.9
20260901180703 92 193 2.0 8.0 0.00 0.00 0.00 48 1016.9
20260901180211 92 191 5.0 9.0 0.00 0.00 0.00 48 1017.1
20260901175628 91 114 4.0 11.0 0.00 0.00 0.00 47 1017.1
20260901175141 91 162 5.0 11.0 0.00 0.00 0.00 49 1017.2
20260901174653 91 294 0.0 5.0 0.00 0.00 0.00 50 1017.3
20260901174126 91 68 1.0 9.0 0.00 0.00 0.00 49 1017.3
20260901173649 91 126 4.0 9.0 0.00 0.00 0.00 49 1017.5
20260901173145 91 134 5.0 9.0 0.00 0.00 0.00 49 1017.5
20260901172639 91 190 3.0 7.0 0.00 0.00 0.00 50 1017.5
20260901172153 91 126 0.0 1.0 0.00 0.00 0.00 52 1017.5
20260901171654 91 127 0.0 8.0 0.00 0.00 0.00 52 1017.6
20260901171207 91 162 2.0 8.0 0.00 0.00 0.00 52 1017.6
20260901170707 91 128 5.0 8.0 0.00 0.00 0.00 52 1017.6
20260901170219 91 182 1.0 6.0 0.00 0.00 0.00 53 1017.7
20260901165714 90 88 1.0 7.0 0.00 0.00 0.00 53 1017.7
20260901165223 90 207 2.0 7.0 0.00 0.00 0.00 54 1017.8
20260901164627 90 215 2.0 7.0 0.00 0.00 0.00 54 1017.8
20260901164146 89 168 2.0 7.0 0.00 0.00 0.00 54 1017.8
20260901163707 89 213 2.0 6.0 0.00 0.00 0.00 55 1017.9
20260901163222 89 184 2.0 7.0 0.00 0.00 0.00 55 1017.9
20260901162632 89 142 1.0 8.0 0.00 0.00 0.00 58 1018.0
20260901162156 89 125 2.0 6.0 0.00 0.00 0.00 57 1018.0
20260901161712 89 209 1.0 5.0 0.00 0.00 0.00 55 1018.0
20260901161129 88 177 0.0 4.0 0.00 0.00 0.00 56 1018.0
20260901160645 88 221 0.0 7.0 0.00 0.00 0.00 59 1018.1
20260901160214 88 134 4.0 7.0 0.00 0.00 0.00 55 1018.1
20260901155651 88 164 0.0 6.0 0.00 0.00 0.00 64 1018.1
20260901155203 87 192 1.0 6.0 0.00 0.00 0.00 63 1018.1
20260901154713 87 149 2.0 6.0 0.00 0.00 0.00 65 1018.1
20260901154158 87 189 0.0 6.0 0.00 0.00 0.00 66 1018.0
20260901153706 86 189 2.0 6.0 0.00 0.00 0.00 66 1018.0
20260901152637 86 94 2.0 4.0 0.00 0.00 0.00 68 1018.0
20260901152153 86 194 0.0 0.0 0.00 0.00 0.00 69 1017.9
20260901151142 85 195 0.0 0.0 0.00 0.00 0.00 71 1018.0
20260901150656 85 128 0.0 0.0 0.00 0.00 0.00 70 1018.0
20260901150135 85 140 0.0 0.0 0.00 0.00 0.00 71 1018.0
20260901145641 84 232 0.0 0.0 0.00 0.00 0.00 73 1018.0
20260901145155 84 133 0.0 0.0 0.00 0.00 0.00 73 1018.0
20260901144651 84 150 0.0 0.0 0.00 0.00 0.00 76 1018.1
20260901144151 83 228 0.0 0.0 0.00 0.00 0.00 76 1018.1
20260901143713 83 232 0.0 0.0 0.00 0.00 0.00 77 1018.1
20260901143151 83 232 0.0 0.0 0.00 0.00 0.00 77 1018.0
20260901142647 83 232 0.0 0.0 0.00 0.00 0.00 79 1018.0
20260901142140 83 232 0.0 0.0 0.00 0.00 0.00 80 1017.9
20260901141637 82 233 0.0 0.0 0.00 0.00 0.00 80 1017.9
20260901141150 82 233 0.0 0.0 0.00 0.00 0.00 82 1017.9
20260901140650 82 233 0.0 1.0 0.00 0.00 0.00 82 1018.0
20260901140144 81 233 0.0 1.0 0.00 0.00 0.00 83 1018.0
20260901135709 81 154 0.0 0.0 0.00 0.00 0.00 86 1018.0
20260901135220 81 154 0.0 0.0 0.00 0.00 0.00 87 1017.9
20260901134733 80 154 0.0 0.0 0.00 0.00 0.00 88 1017.9
20260901134215 79 154 0.0 0.0 0.00 0.00 0.00 90 1017.9
20260901133128 78 154 0.0 0.0 0.00 0.00 0.00 90 1017.9
20260901132645 78 154 0.0 0.0 0.00 0.00 0.00 90 1017.9
20260901131632 77 154 0.0 0.0 0.00 0.00 0.00 93 1017.7
20260901131145 77 154 0.0 0.0 0.00 0.00 0.00 93 1017.6
20260901130132 76 154 0.0 0.0 0.00 0.00 0.00 93 1017.6
20260901125646 76 154 0.0 0.0 0.00 0.00 0.00 93 1017.4
20260901124738 75 154 0.0 0.0 0.00 0.00 0.00 92 1017.4
20260901124124 75 154 0.0 0.0 0.00 0.00 0.00 92 1017.3
20260901123648 75 155 0.0 0.0 0.00 0.00 0.00 92 1017.1
20260901123146 75 155 0.0 0.0 0.00 0.00 0.00 92 1017.2
20260901122644 75 155 0.0 0.0 0.00 0.00 0.00 91 1017.2
20260901121636 75 155 0.0 0.0 0.00 0.00 0.00 91 1017.1
20260901121153 75 154 0.0 0.0 0.00 0.00 0.00 91 1017.0
20260901120147 76 154 0.0 0.0 0.00 0.00 0.00 90 1016.9
20260901115644 76 154 0.0 0.0 0.00 0.00 0.00 90 1016.9
20260901115201 76 155 0.0 0.0 0.00 0.00 0.00 90 1016.9
20260901114722 76 154 0.0 0.0 0.00 0.00 0.00 90 1017.0
20260901114137 76 154 0.0 0.0 0.00 0.00 0.00 90 1017.1
20260901113652 76 154 0.0 0.0 0.00 0.00 0.00 90 1017.2
20260901113207 76 155 0.0 0.0 0.00 0.00 0.00 90 1017.2
20260901112623 76 154 0.0 0.0 0.00 0.00 0.00 90 1017.1
20260901112136 77 155 0.0 0.0 0.00 0.00 0.00 90 1017.2
20260901111708 77 155 0.0 0.0 0.00 0.00 0.00 90 1017.2
20260901111217 77 155 0.0 0.0 0.00 0.00 0.00 90 1017.1
20260901110147 77 164 0.0 0.0 0.00 0.00 0.00 90 1017.0
20260901105703 77 165 0.0 0.0 0.00 0.00 0.00 90 1017.1
20260901105217 77 165 0.0 0.0 0.00 0.00 0.00 90 1017.2
20260901104713 77 165 0.0 0.0 0.00 0.00 0.00 90 1017.1
20260901104134 77 149 0.0 0.0 0.00 0.00 0.00 90 1017.2
20260901103634 77 150 0.0 0.0 0.00 0.00 0.00 90 1017.3
20260901103149 77 140 0.0 0.0 0.00 0.00 0.00 90 1017.3
20260901102712 77 165 0.0 0.0 0.00 0.00 0.00 90 1017.3
20260901102219 77 182 0.0 0.0 0.00 0.00 0.00 90 1017.1
20260901101714 77 182 0.0 0.0 0.00 0.00 0.00 90 1017.1
20260901101206 76 183 0.0 0.0 0.00 0.00 0.00 89 1017.0
20260901100701 76 183 0.0 0.0 0.00 0.00 0.00 89 1017.0
20260901095627 77 183 0.0 0.0 0.00 0.00 0.00 89 1017.0
20260901095228 77 183 0.0 0.0 0.00 0.00 0.00 88 1017.0
20260901094716 77 183 0.0 0.0 0.00 0.00 0.00 88 1017.0
20260901094129 77 129 0.0 0.0 0.00 0.00 0.00 88 1017.0
20260901093652 77 129 0.0 0.0 0.00 0.00 0.00 87 1017.0
20260901093151 77 129 0.0 0.0 0.00 0.00 0.00 87 1017.0
20260901092651 77 129 0.0 0.0 0.00 0.00 0.00 86 1017.1
20260901091630 77 129 0.0 0.0 0.00 0.00 0.00 86 1017.2
20260901091152 77 129 0.0 0.0 0.00 0.00 0.00 86 1017.2
20260901090709 77 129 0.0 0.0 0.00 0.00 0.00 85 1017.2
20260901090203 78 129 0.0 0.0 0.00 0.00 0.00 85 1017.3
20260901085656 78 129 0.0 0.0 0.00 0.00 0.00 85 1017.3
20260901085207 78 129 0.0 0.0 0.00 0.00 0.00 85 1017.4
20260901084701 78 129 0.0 0.0 0.00 0.00 0.00 85 1017.3
20260901084204 78 131 0.0 0.0 0.00 0.00 0.00 85 1017.4
20260901083723 78 139 0.0 0.0 0.00 0.00 0.00 85 1017.3
20260901083220 78 126 0.0 0.0 0.00 0.00 0.00 85 1017.3
20260901082627 78 130 0.0 0.0 0.00 0.00 0.00 84 1017.3
20260901082143 78 121 0.0 0.0 0.00 0.00 0.00 84 1017.2
20260901081713 78 121 0.0 0.0 0.00 0.00 0.00 83 1017.2
20260901080634 78 141 0.0 0.0 0.00 0.00 0.00 83 1017.1
20260901080155 78 132 0.0 0.0 0.00 0.00 0.00 82 1017.2
20260901075134 79 126 0.0 0.0 0.00 0.00 0.00 82 1017.1
20260901074657 79 124 0.0 0.0 0.00 0.00 0.00 81 1017.2
20260901074157 79 125 0.0 6.0 0.00 0.00 0.00 81 1017.1
20260901073715 79 152 3.0 7.0 0.00 0.00 0.00 81 1017.1
20260901073216 79 166 3.0 7.0 0.00 0.00 0.00 81 1017.1
20260901072712 79 166 4.0 10.0 0.00 0.00 0.00 80 1017.1
20260901072204 79 140 5.0 10.0 0.00 0.00 0.00 80 1017.2
20260901071715 79 134 5.0 10.0 0.00 0.00 0.00 80 1017.0
20260901070641 80 154 5.0 8.0 0.00 0.00 0.00 78 1017.1
20260901070151 80 139 3.0 8.0 0.00 0.00 0.00 78 1017.0
20260901065638 80 138 3.0 10.0 0.00 0.00 0.00 78 1017.2
20260901065158 80 142 5.0 10.0 0.00 0.00 0.00 77 1017.1
20260901064625 80 127 4.0 6.0 0.00 0.00 0.00 77 1017.2
20260901064151 80 142 4.0 6.0 0.00 0.00 0.00 76 1017.0
20260901063629 80 141 4.0 6.0 0.00 0.00 0.00 76 1016.9
20260901063132 80 144 4.0 6.0 0.00 0.00 0.00 75 1017.0
20260901062639 80 144 2.0 5.0 0.00 0.00 0.00 75 1017.0
20260901062144 81 152 3.0 6.0 0.00 0.00 0.00 74 1017.0
20260901061641 81 148 2.0 7.0 0.00 0.00 0.00 74 1017.0
20260901061128 81 158 5.0 7.0 0.00 0.00 0.00 74 1016.9
20260901060635 81 131 4.0 8.0 0.00 0.00 0.00 73 1016.9
20260901060141 81 114 5.0 8.0 0.00 0.00 0.00 73 1016.8
20260901055647 81 130 4.0 7.0 0.00 0.00 0.00 72 1016.6
20260901055125 82 162 4.0 7.0 0.00 0.00 0.00 72 1016.5
20260901054633 82 129 5.0 7.0 0.00 0.00 0.00 71 1016.5
20260901054134 82 130 4.0 9.0 0.00 0.00 0.00 71 1016.5
20260901053702 82 142 4.0 9.0 0.00 0.00 0.00 71 1016.5
20260901053148 82 145 5.0 9.0 0.00 0.00 0.00 71 1016.6
20260901052627 82 122 5.0 9.0 0.00 0.00 0.00 70 1016.6
20260901052134 83 111 5.0 9.0 0.00 0.00 0.00 70 1016.5
20260901051641 83 117 4.0 10.0 0.00 0.00 0.00 70 1016.6
20260901051138 83 122 5.0 8.0 0.00 0.00 0.00 69 1016.6
20260901050625 83 144 3.0 9.0 0.00 0.00 0.00 69 1016.6
20260901050132 83 129 6.0 9.0 0.00 0.00 0.00 69 1016.6
20260901045216 84 148 6.0 10.0 0.00 0.00 0.00 68 1016.5
20260901044634 84 148 6.0 10.0 0.00 0.00 0.00 68 1016.4
20260901044236 84 155 5.0 11.0 0.00 0.00 0.00 67 1016.3
20260901043708 84 175 6.0 13.0 0.00 0.00 0.00 67 1016.3
20260901043142 84 175 7.0 13.0 0.00 0.00 0.00 66 1016.4
20260901042222 85 144 5.0 14.0 0.00 0.00 0.00 66 1016.2
20260901041628 85 135 7.0 18.0 0.00 0.00 0.00 65 1016.2
20260901041223 85 142 9.0 18.0 0.00 0.00 0.00 65 1016.3
20260901040647 85 150 9.0 20.0 0.00 0.00 0.00 65 1016.3
20260901040152 85 140 9.0 20.0 0.00 0.00 0.00 64 1016.3
20260901035712 86 157 8.0 18.0 0.00 0.00 0.00 63 1016.2
20260901035134 86 155 10.0 19.0 0.00 0.00 0.00 62 1016.1
20260901034632 86 166 10.0 19.0 0.00 0.00 0.00 61 1016.1
20260901034146 86 146 6.0 13.0 0.00 0.00 0.00 61 1016.0
20260901033137 86 141 9.0 18.0 0.00 0.00 0.00 60 1016.0
20260901032629 86 142 7.0 13.0 0.00 0.00 0.00 60 1016.1
20260901032125 87 162 4.0 9.0 0.00 0.00 0.00 60 1016.0
20260901031740 87 120 4.0 10.0 0.00 0.00 0.00 59 1015.9
20260901031135 87 148 5.0 10.0 0.00 0.00 0.00 59 1015.7
20260901030651 87 132 4.0 8.0 0.00 0.00 0.00 59 1015.6
20260901030211 87 132 5.0 9.0 0.00 0.00 0.00 59 1015.5
20260901025726 87 126 6.0 9.0 0.00 0.00 0.00 58 1015.4
20260901025218 87 134 4.0 9.0 0.00 0.00 0.00 58 1015.3
20260901024637 87 126 6.0 9.0 0.00 0.00 0.00 58 1015.1
20260901024154 88 139 7.0 10.0 0.00 0.00 0.00 58 1015.1
20260901023715 88 129 7.0 10.0 0.00 0.00 0.00 58 1015.1
20260901023223 88 130 4.0 9.0 0.00 0.00 0.00 58 1015.0
20260901022631 88 158 4.0 9.0 0.00 0.00 0.00 58 1014.9
20260901022159 88 144 4.0 8.0 0.00 0.00 0.00 57 1014.8
20260901021238 88 76 5.0 9.0 0.00 0.00 0.00 57 1014.7
20260901020716 89 78 4.0 7.0 0.00 0.00 0.00 56 1014.7
20260901020138 89 116 3.0 9.0 0.00 0.00 0.00 56 1014.6
20260901015632 89 105 4.0 8.0 0.00 0.00 0.00 55 1014.5
20260901015156 89 119 5.0 9.0 0.00 0.00 0.00 55 1014.6
20260901014138 89 142 4.0 10.0 0.00 0.00 0.00 53 1014.5
20260901013658 90 97 5.0 10.0 0.00 0.00 0.00 52 1014.5
20260901013152 90 109 4.0 8.0 0.00 0.00 0.00 52 1014.4
20260901012706 90 99 4.0 12.0 0.00 0.00 0.00 51 1014.4
20260901012125 90 101 6.0 12.0 0.00 0.00 0.00 49 1014.4
20260901011640 90 92 6.0 11.0 0.00 0.00 0.00 48 1014.3
20260901011151 91 74 2.0 4.0 0.00 0.00 0.00 47 1014.2
20260901010740 91 74 1.0 5.0 0.00 0.00 0.00 47 1014.0
20260901010212 92 74 3.0 5.0 0.00 0.00 0.00 45 1014.0
20260901005711 92 97 2.0 3.0 0.00 0.00 0.00 45 1014.0
20260901005202 92 97 2.0 5.0 0.00 0.00 0.00 45 1014.0
20260901004656 93 99 3.0 5.0 0.00 0.00 0.00 44 1014.0
20260901004221 93 83 3.0 6.0 0.00 0.00 0.00 44 1014.0
20260901003633 93 101 2.0 6.0 0.00 0.00 0.00 43 1013.9
20260901003157 94 101 2.0 8.0 0.00 0.00 0.00 43 1014.0
20260901002710 94 113 5.0 8.0 0.00 0.00 0.00 43 1013.9
20260901002204 94 113 5.0 8.0 0.00 0.00 0.00 42 1013.9
20260901001703 94 112 3.0 7.0 0.00 0.00 0.00 43 1013.9
20260901001216 94 113 2.0 8.0 0.00 0.00 0.00 43 1013.7
20260901000627 94 120 5.0 8.0 0.00 0.00 0.00 42 1013.7
20260901000157 94 109 4.0 8.0 0.00 0.00 0.00 43 1013.7
20260831235713 94 119 3.0 7.0 0.00 0.00 0.00 42 1013.7
20260831235135 95 78 5.0 9.0 0.00 0.00 0.00 42 1013.7
20260831234651 95 88 5.0 9.0 0.00 0.00 0.00 42 1013.6
20260831234211 95 76 4.0 13.0 0.00 0.00 0.00 42 1013.7
20260831233723 95 126 7.0 13.0 0.00 0.00 0.00 42 1013.7
20260831233132 95 78 6.0 12.0 0.00 0.00 0.00 42 1013.6
20260831232651 95 63 6.0 11.0 0.00 0.00 0.00 42 1013.6
20260831231642 95 44 6.0 10.0 0.00 0.00 0.00 43 1013.7
20260831231201 95 114 6.0 10.0 0.00 0.00 0.00 43 1013.7
20260831230713 95 144 6.0 12.0 0.00 0.00 0.00 42 1013.7
20260831230224 95 129 7.0 18.0 0.00 0.00 0.00 42 1013.8
20260831225151 95 157 4.0 9.0 0.00 0.00 0.00 44 1013.7
20260831224721 95 128 1.0 11.0 0.00 0.00 0.00 44 1013.8
20260831224129 95 202 5.0 12.0 0.00 0.00 0.00 44 1013.9
20260831223641 94 175 6.0 11.0 0.00 0.00 0.00 45 1013.9
20260831222632 94 123 6.0 10.0 0.00 0.00 0.00 44 1014.0
20260831222143 95 148 4.0 10.0 0.00 0.00 0.00 44 1014.1
20260831221138 96 134 6.0 11.0 0.00 0.00 0.00 43 1014.1
20260831220650 96 117 5.0 9.0 0.00 0.00 0.00 43 1014.1
20260831215633 96 126 7.0 12.0 0.00 0.00 0.00 42 1014.2
20260831215148 96 172 7.0 10.0 0.00 0.00 0.00 43 1014.3
20260831214714 96 106 5.0 9.0 0.00 0.00 0.00 43 1014.4
20260831214131 96 213 3.0 12.0 0.00 0.00 0.00 44 1014.4
20260831213647 95 119 5.0 12.0 0.00 0.00 0.00 43 1014.4
20260831212631 94 148 4.0 8.0 0.00 0.00 0.00 45 1014.6
20260831212148 95 151 4.0 11.0 0.00 0.00 0.00 44 1014.6
20260831211712 95 169 7.0 11.0 0.00 0.00 0.00 45 1014.7
20260831211222 95 96 5.0 12.0 0.00 0.00 0.00 45 1014.8
20260831210744 95 123 6.0 12.0 0.00 0.00 0.00 46 1014.8
20260831210135 95 188 3.0 9.0 0.00 0.00 0.00 46 1014.9
20260831205649 95 145 5.0 9.0 0.00 0.00 0.00 45 1015.0
20260831205212 95 186 3.0 10.0 0.00 0.00 0.00 44 1015.0
20260831204709 94 159 6.0 12.0 0.00 0.00 0.00 46 1015.2
20260831204221 94 81 5.0 12.0 0.00 0.00 0.00 47 1015.3
20260831203630 94 83 7.0 12.0 0.00 0.00 0.00 46 1015.5
20260831203158 94 89 8.0 14.0 0.00 0.00 0.00 45 1015.6
20260831202649 94 105 9.0 14.0 0.00 0.00 0.00 46 1015.7
20260831201723 94 156 5.0 10.0 0.00 0.00 0.00 46 1015.7
20260831201217 94 134 5.0 9.0 0.00 0.00 0.00 47 1015.9
20260831200710 94 137 3.0 13.0 0.00 0.00 0.00 48 1015.9
20260831200222 94 146 7.0 15.0 0.00 0.00 0.00 47 1016.1
20260831195145 94 149 4.0 13.0 0.00 0.00 0.00 48 1016.2
20260831194643 93 58 7.0 13.0 0.00 0.00 0.00 49 1016.3
20260831194140 93 153 8.0 13.0 0.00 0.00 0.00 47 1016.4
20260831193636 93 130 4.0 12.0 0.00 0.00 0.00 49 1016.4
20260831193150 93 182 5.0 18.0 0.00 0.00 0.00 49 1016.5
20260831192654 94 113 7.0 18.0 0.00 0.00 0.00 48 1016.6